Regional Weather Roundup
Issued by NWS

Home | Current Version | Previous Version | Graphics & Text | Print | Product List | Glossary On
Versions: 1 2 3 4 5 6 7 8 9 10 11 12 13 14 15 16 17 18 19 20 21 22 23 24 25 26 27 28 29 30 31 32 33 34 35 36 37 38 39 40 41 42 43 44 45 46 47 48 49 50
000
ASUS43 KFSD 051702
RWRSD

WEATHER ROUNDUP FOR SOUTH DAKOTA
NATIONAL WEATHER SERVICE SIOUX FALLS SD
1100 AM CST MON DEC 05 2016

NOTE: "FAIR" INDICATES FEW OR NO CLOUDS BELOW 12,000 FEET WITH NO
SIGNIFICANT WEATHER AND/OR OBSTRUCTIONS TO VISIBILITY.


SDZ001>005-009-010-012>017-051800-
NORTHWEST AND NORTH CENTRAL SOUTH DAKOTA

CITY           SKY/WX    TMP DP  RH WIND       PRES   REMARKS
BUFFALO          N/A     25  18  74 NW39G51   29.56R WCI   6
FAITH            N/A     25  25 100 NW32G39   29.57R WCI   8
MOBRIDGE       CLOUDY    33  25  72 NW15      29.50R WCI  23
$$

SDZ012>016-024>037-041>051-057-063-072>074-051800-
SOUTHWEST AND SOUTH CENTRAL SOUTH DAKOTA

CITY           SKY/WX    TMP DP  RH WIND       PRES   REMARKS
RAPID CTY ARPT CLOUDY    28  20  71 NW37G47   29.61R WCI  11
PIERRE         SUNNY     33  28  81 NW17      29.50R WCI  22
CUSTER         CLOUDY    24  15  68 N8        29.53  WCI  15
ELLSWORTH AFB  CLOUDY    28  21  74 NW33G43   29.60  WCI  12
PHILIP         CLOUDY    34  32  92 NW18      29.58R WCI  23
PINE RIDGE     LGT SNOW  32  31  96 N6        29.61R FOG     WCI  26
WINNER         FAIR      43  27  53 W20       29.51R
$$

SDZ004>011-016>023-039-040-051800-
NORTHEAST SOUTH DAKOTA

CITY           SKY/WX    TMP DP  RH WIND       PRES   REMARKS
ABERDEEN       CLOUDY    34  29  82 E8        29.51F WCI  27
WATERTOWN      CLOUDY    34  29  82 SE9       29.50F WCI  27
SISSETON         N/A     30  27  88 SE6       29.56F WCI  24
$$

SDZ017-020-022-023-036>040-048>070-051800-
SOUTHEAST SOUTH DAKOTA

CITY           SKY/WX    TMP DP  RH WIND       PRES   REMARKS
SIOUX FALLS    CLOUDY    40  31  70 S14G23    29.54S
HURON          HAZE      36  30  79 MISG      29.46F VSB 1/4
MITCHELL       CLOUDY    38  31  76 SE10      29.49F
YANKTON        CLOUDY    43  27  52 S13       29.53F
$$

ABBREVIATIONS USED IN REMARKS
   TC - TEMPERATURE IN CELSIUS
  WCI - WIND CHILL INDEX
   HX - HEAT INDEX
  VSB - VISIBILITY




USA.gov is the U.S. government's official web portal to all federal, state and local government web resources and services.